Perry Municipal Airport
Thursday 12:35 AM
Temperature58° (59°/58°)
Dew Point56°
Relative Humidity92
%
Visibility10
mi
Pressure1013.2
mb
Wind DirectionS
170°
Wind Speed5
mph
Precipitation Today0.00"

Last 30 Observations

Time PresWx Temp DP Feels RH% Vsby Pressure Ceiling Direction Speed 1h Precip
12:15 AM 10
mi
0.00"
11:55 PM 60° 57° 90
%
10
mi
1013.6
mb
S
170°
6
mph
0.00"
11:35 PM 60° 58° 91
%
10
mi
1013.6
mb
S
170°
7
mph
0.00"
11:15 PM 58° 55° 91
%
10
mi
1013.9
mb
S
170°
8
mph
0.00"
10:55 PM 58° 56° 90
%
10
mi
1013.9
mb
S
170°
7
mph
0.00"
10:35 PM 58° 55° 88
%
10
mi
1014.2
mb
S
170°
7
mph
0.00"
10:15 PM 58° 55° 88
%
10
mi
1014.2
mb
SSE
150°
6
mph
0.00"
9:55 PM 58° 55° 87
%
10
mi
1014.2
mb
SSE
150°
5
mph
0.00"
9:15 PM 60° 55° 83
%
10
mi
1014.2
mb
S
180°
6
mph
0.00"
8:55 PM 61° 55° 80
%
10
mi
1014.2
mb
SSW
200°
5
mph
0.00"
8:15 PM 66° 57° 73
%
10
mi
1013.9
mb
SW
220°
6
mph
0.00"
7:15 PM 71° 58° 71°62
%
10
mi
1013.6
mb
SW
220°
7
mph
0.00"
6:35 PM 75° 58° 75°56
%
10
mi
1013.6
mb
SW
230°
10
mph
0.00"
5:55 PM 78° 57° 78°49
%
10
mi
1013.2
mb
4,400
ft
SW
230°
14
mph
(G21)
0.00"
5:35 PM 79° 57° 79°47
%
10
mi
1013.2
mb
4,400
ft
SW
220°
9
mph
0.00"
5:15 PM 79° 58° 79°48
%
10
mi
1013.2
mb
4,400
ft
SW
220°
15
mph
(G18)
0.00"
4:55 PM 80° 57° 80°46
%
10
mi
1013.2
mb
4,600
ft
SSW
210°
13
mph
0.00"
4:35 PM 81° 57° 81°44
%
10
mi
1013.6
mb
4,600
ft
SW
220°
14
mph
(G20)
0.00"
4:15 PM 81° 56° 81°42
%
10
mi
1013.9
mb
4,600
ft
SW
220°
13
mph
(G22)
0.00"
3:55 PM 80° 56° 80°44
%
10
mi
1013.9
mb
SSW
200°
9
mph
0.00"
3:35 PM 80° 56° 79°45
%
10
mi
1013.9
mb
SSW
210°
10
mph
0.00"
3:15 PM 80° 56° 80°43
%
10
mi
1014.2
mb
SSW
200°
16
mph
(G20)
0.00"
2:55 PM 80° 57° 80°45
%
10
mi
1014.2
mb
SW
220°
11
mph
(G18)
0.00"
2:15 PM 80° 57° 79°46
%
10
mi
1014.9
mb
4,400
ft
SSW
210°
10
mph
0.00"
1:55 PM 80° 57° 80°45
%
10
mi
1015.2
mb
4,400
ft
SSW
210°
13
mph
(G17)
0.00"
1:35 PM 80° 56° 79°45
%
10
mi
1015.6
mb
4,200
ft
SSW
210°
8
mph
0.00"
1:15 PM 79° 58° 79°49
%
10
mi
1015.6
mb
SSW
210°
10
mph
0.00"
12:55 PM 78° 59° 77°53
%
10
mi
1015.9
mb
3,800
ft
SSW
200°
8
mph
0.00"
11:55 AM 77° 60° 77°57
%
10
mi
1016.6
mb
S
180°
7
mph
0.00"
11:35 AM 75° 62° 75°64
%
10
mi
1016.9
mb
SSW
210°
7
mph
0.00"